Starlink 11448

operational
NORAD ID: 63005 Int'l Des: 2025-032 Owner: SPXS Country: US Constellation: starlink
LEOCIRCULAR

Über Starlink 11448

Beschreibung wird geladen...

Live-Position

3D-Globus wird geladen...

Nächste Überflüge

Höhenverlauf

Altitude vs Time

uPlot chart will show altitude changes over time

Zweizeiliger Elementsatz

1 63005U 25032A 25305.54290197 .00299155 00000-0 22376-2 0 9991
2 63005 42.9997 247.4103 0002245 306.1410 53.9250 15.70992506 42076
Epoch: 1. Nov. 2025 • Age: 29 hours

Aktueller Status

Höhe 355.9 km
Geschwindigkeit 7.70 km/s
Subsatellitenpunkt 35.40°N, 26.81°W
Startdatum 15. Feb. 2025
Alter 0.7 years
Typ internet

Technische Details

Klassifizierung Payload
Masse 960.00 kg
Trockenmasse 910.00 kg
Gesamtmasse 960.00 kg
Länge 0.30 m
Durchmesser 4.10 m
Spannweite 29.00 m
Form Box + pan
Hersteller SPXS
Bus-Typ Starlink V2MD
Phasenstatus In Orbit
Besitzer/Staat SPXS/US

Große Konstellationen

Loading constellations...